Regional Weather Roundup
Issued by NWS

Home | Current Version | Previous Version | Text Only | Print | Product List | Glossary On
Versions: 1 2 3 4 5 6 7 8 9 10 11 12 13 14 15 16 17 18 19 20 21 22 23 24 25 26 27 28 29 30 31 32 33 34 35 36 37 38 39 40 41 42 43 44 45 46 47 48 49 50
000
ASUS42 KTBW 290810
RWRFL
FLORIDA REGIONAL WEATHER ROUNDUP
NATIONAL WEATHER SERVICE TAMPA BAY RUSKIN FL
400 AM EDT TUE JUL 29 2014

NOTE: "FAIR" INDICATES FEW OR NO CLOUDS BELOW 12,000 FEET WITH NO
SIGNIFICANT WEATHER AND/OR OBSTRUCTIONS TO VISIBILITY.


FLZ001>010-012>015-112-114-115-290900-
PANHANDLE FLORIDA

CITY           SKY/WX    TMP DP  RH WIND       PRES   REMARKS
PENSACOLA      CLEAR     75  71  87 N8        29.95F
PENSACOLA NAS  CLEAR     76  74  93 N5        29.95F
MILTON NAS     CLEAR     74  69  85 N3        29.96F
CRESTVIEW      MOCLDY    74  71  91 N5        29.96F
DUKE FIELD     FAIR      74  73  99 N6        29.95F
VALPARAISO     PTCLDY    76  71  86 N5        29.94F
MARY ESTHER    CLEAR     77  68  73 N8        29.94S
TRI COUNTY     CLOUDY    74  72  93 N3        29.95S
PANAMA CITY    FAIR      77  72  84 W3        29.93S
TYNDALL AFB    CLEAR     80  77  91 NW7       29.94S
APALACHICOLA   MOCLDY    79  78  97 W5        29.93S

STATION/POSITION SKY/WX   TEMP    WIND        PRES    WAVE   SWELL
                          AIR SEA DIR/SP/G            HT/PER HT/PER
                          (F)     (DEG/KT/KT) (MB)    (FT/S) (FT/S)
30.1N   87.6W              82 84  340/ 14/ 16 1014.1F   2/ 4
29.2N   88.2W              85 86  290/ 17/ 21 1014.4F
28.8N   86.0W              84 85  260/ 17/ 21 1013.4F   4/ 5
PANAMA CITY BEAC           80 78  310/  6/  9 1013.8R
CAPE SAN BLAS    NOT AVBL
TOWER C                    83     280/ 15/ 16 1013.5F
28.5N   84.5W              85 86  260/ 17/ 21 1014.0F   5/ 6

$$
FLZ011-016>038-118-127-128-134-139-239-290900-
NORTH FLORIDA

CITY           SKY/WX    TMP DP  RH WIND       PRES   REMARKS
MARIANNA       PTCLDY    74  74 100 NW5       29.93F
TALLAHASSEE      N/A    N/A N/A N/A MISG        N/A
PERRY          MOCLDY    73  72  94 CALM      29.93F
CROSS CITY       N/A     78  72  81 CALM      29.92F
GAINESVILLE    PTCLDY    79  77  94 W8        29.92S
MAYPORT NAS    MOCLDY    83  76  79 W8        29.88S
JACKSONVILLE   MOCLDY    79  78  97 W8        29.88F
JAX NAS        MOCLDY    83  77  82 W9        29.90S
JAX CRAIG      PTCLDY    82  77  84 W8        29.88F
JAX CECIL      PTCLDY    79  77  94 SW7       29.90S
FERNANDINA BEA FAIR      81  77  89 W7        29.87S
ST AUGUSTINE   CLOUDY    81  77  88 W9        29.90S

STATION/POSITION SKY/WX   TEMP    WIND        PRES    WAVE   SWELL
                          AIR SEA DIR/SP/G            HT/PER HT/PER
                          (F)     (DEG/KT/KT) (MB)    (FT/S) (FT/S)
SHELL POINT                79     300/  5/  7   N/A
KEATON BEACH               84     290/ 14/ 16 1013.3F
CEDAR KEY                  85     280/ 13/ 18 1014.3F
FERNANDINA                 81 86  250/ 11/ 12 1011.2S
30.7N   81.3W                 85                N/A     2/ 3
MAYPORT                    82 85  260/ 12/ 14   N/A
31.4N   80.9W              83 85  310/ 17/ 19 1010.4F   3/ 5   2/ 9
ST AUGUSTINE               80     260/  7/  9 1012.9F

$$
FLZ040-043>046-052-053-057-058-063-144-290900-
INTERIOR CENTRAL FLORIDA

CITY           SKY/WX    TMP DP  RH WIND       PRES   REMARKS
OCALA          PTCLDY    79  70  73 SW6       29.93F
LEESBURG       PTCLDY    81  76  84 SW6       29.94F
SANFORD        CLEAR     81  77  88 SW9       29.92F
ORLANDO EXEC   CLEAR     81  76  84 W9        29.93F
ORLANDO INTL   PTCLDY    80  76  87 SW7       29.94F
WINTER HAVEN   PTCLDY    80  75  84 W8        29.96F
LAKELAND         N/A     77  77 100 SW3       29.96F
BARTOW         FAIR      79  79 100 SW6       29.96F
OKEECHOBEE       N/A     77  73  88 MISG      29.97F

$$
FLZ041-047-054-059-064-141-147-290900-
EAST CENTRAL FLORIDA

CITY           SKY/WX    TMP DP  RH WIND       PRES   REMARKS
DAYTONA BEACH  PTCLDY    79  76  90 SW8       29.92S
DELAND         MOSUNNY   79  75  89 MISG      29.93F
JFK SPACE CTR  PTCLDY    81  80  98 W13       29.93S
CAPE CANAVERAL PTCLDY    81  76  83 W12       29.92F
PATRICK AFB    PTCLDY    81  76  86 W12       29.94S
MELBOURNE      PTCLDY    80  75  84 SW7       29.94F
VERO BEACH     PTCLDY    77  76  96 SW8       29.95F
FT PIERCE      PTCLDY    78  73  84 SW5       29.96S
STUART         CLEAR     79  75  89 W6        29.97S

STATION/POSITION SKY/WX   TEMP    WIND        PRES    WAVE   SWELL
                          AIR SEA DIR/SP/G            HT/PER HT/PER
                          (F)     (DEG/KT/KT) (MB)    (FT/S) (FT/S)
28.5N   80.2W              83 84  240/ 14/ 17 1013.6F
28.9N   78.5W              83 84  210/ 19/ 23 1012.7R   5/ 5
TRIDENT PIER               82 86  230/ 10/ 17 1013.0F
28.4N   80.5W                 83                N/A     1/ 8
27.6N   80.2W                 82                N/A     1/ 9

$$
FLZ050-056-061-142-242-148-248-149-249-151-251-155-255-
160-260-290900-
WEST CENTRAL FLORIDA

CITY           SKY/WX    TMP DP  RH WIND       PRES   REMARKS
CRYSTAL RIVER  FAIR      82  73  74 W12G22    29.93F
INVERNESS      FAIR      81  73  78 CALM      29.94F
BROOKSVILLE    PTCLDY    83  75  77 W12G20    29.95F
ZEPHYRHILLS    FAIR      77  77 100 SW3       29.96F
CLEARWATER     LGT RAIN  83  76  79 W9        29.96F
TAMPA INTL     MOCLDY    84  75  74 W12       29.95F
TAMPA EXEC     MOCLDY    81  77  89 CALM      29.96F
PLANT CITY     MOCLDY    81  81 100 SW3       29.98F
MACDILL AFB    MOCLDY    83  79  86 W8        29.96F
ST PETERSBURG  MOCLDY    86  75  69 W13G18    29.94F HX  95
SARASOTA       MOCLDY    86  73  65 W14       29.96F
VENICE         FAIR      84  73  70 W13       29.98F

STATION/POSITION SKY/WX   TEMP    WIND        PRES    WAVE   SWELL
                          AIR SEA DIR/SP/G            HT/PER HT/PER
                          (F)     (DEG/KT/KT) (MB)    (FT/S) (FT/S)
CEDAR KEY                  85     280/ 13/ 18 1014.3F
28.5N   84.5W              85 86  260/ 17/ 21 1014.0F   5/ 6
27.3N   84.3W                 87                N/A     4/ 6
CLEARWATER BEACH           86 88  250/ 17/ 20 1014.1F
MIDDLE TAMPA BAY           86     290/ 18/ 20 1014.8S
VENICE                     86 90  260/ 16/ 18 1014.3F

$$
FLZ066-069-070-075>078-162-262-165-265-290900-
SOUTHWEST FLORIDA AND KEYS

CITY           SKY/WX    TMP DP  RH WIND       PRES   REMARKS
PUNTA GORDA    PTCLDY    83  75  77 W7        29.98F
FT MYERS       PTCLDY    81  75  82 S3        29.97F
SOUTHWEST INTL CLEAR     79  75  87 SW7       29.98F
NAPLES         PTCLDY    84  78  82 W8        29.98F HX  95
MARATHON       PTCLDY    85  77  77 VRB5      30.00F HX  95
KEY WEST NAS   CLEAR     83  75  77 S5        30.01F
KEY WEST INTL  CLEAR     86  74  67 SW5       30.01F

STATION/POSITION SKY/WX   TEMP    WIND        PRES    WAVE   SWELL
                          AIR SEA DIR/SP/G            HT/PER HT/PER
                          (F)     (DEG/KT/KT) (MB)    (FT/S) (FT/S)
VENICE                     86 90  260/ 16/ 18 1014.3F
NAPLES                     85 92   CALM  /  1 1015.9F
DRY TORTUGAS               85     190/  4/  5 1016.4F
NW FL BAY                  87     260/  4/  6 1016.8F
SAND KEY                   85     190/  5/  6 1016.2F
SOMBRERO KEY               84     190/ 10/ 13 1016.6F
LONG KEY                   86 91  240/  6/  7 1017.3F
MOLASSES REEF              84 87  220/ 11/ 12 1015.7F

$$
FLZ067-068-071>074-168-172>174-290900-
SOUTHEAST FLORIDA

CITY           SKY/WX    TMP DP  RH WIND       PRES   REMARKS
W PALM BEACH   MOCLDY    80  76  87 SW8       29.96F
FT LAUDER-EXEC PTCLDY    81  78  91 SW8       29.98F
FT LAUDERDALE  PTCLDY    82  76  81 VRB3      29.98F
POMPANO BEACH  PTCLDY   N/A N/A N/A MISG      29.98F
PEMBROKE PINES PTCLDY    81  77  88 W5        30.00F
OPA LOCKA      PTCLDY    81  75  82 SW5       29.99F
MIAMI          MOCLDY    81  74  79 SW6       29.99F
WEST KENDALL   CLEAR     80  74  81 SW6       30.00F
HOMESTEAD      CLEAR     77  74  90 SW3       29.99F

STATION/POSITION SKY/WX   TEMP    WIND        PRES    WAVE   SWELL
                          AIR SEA DIR/SP/G            HT/PER HT/PER
                          (F)     (DEG/KT/KT) (MB)    (FT/S) (FT/S)
PORT EVERGLADES            82     240/  4/  7 1015.3
VIRGINIA KEY               83 89  260/ 10/ 11   N/A
LAKE WORTH                 81 82              1014.7F
FOWEY ROCKS                84 86  250/ 12/ 13 1015.9F
SETTLEMENT POINT           85     270/ 16/ 18 1014.9F

$$



USA.gov is the U.S. government's official web portal to all federal, state and local government web resources and services.